| time (UTC) | temp C | wind direction | speed KPH | gust KPH | rain 1hr cm | rain 24hr cm | rain mn cm | humidity % | barometer mb |
| 20260506222840 | 27 | 68 | 3.2 | 6.4 | 0.00 | 0.00 | 0.00 | 74 | 1003.4 |
| 20260506222330 | 27 | 113 | 3.2 | 6.4 | 0.00 | 0.00 | 0.00 | 75 | 1003.5 |
| 20260506221821 | 27 | 113 | 4.8 | 6.4 | 0.00 | 0.00 | 0.00 | 74 | 1003.5 |
| 20260506221311 | 27 | 158 | 3.2 | 6.4 | 0.00 | 0.00 | 0.00 | 74 | 1003.6 |
| 20260506220800 | 27 | 90 | 3.2 | 6.4 | 0.00 | 0.00 | 0.00 | 73 | 1003.4 |
| 20260506220251 | 27 | 113 | 1.6 | 9.7 | 0.00 | 0.00 | 0.00 | 73 | 1003.3 |
| 20260506215740 | 28 | 135 | 3.2 | 9.7 | 0.00 | 0.00 | 0.00 | 72 | 1003.2 |
| 20260506215230 | 28 | 158 | 3.2 | 9.7 | 0.00 | 0.00 | 0.00 | 72 | 1003.3 |
| 20260506214720 | 28 | 158 | 3.2 | 9.7 | 0.00 | 0.00 | 0.00 | 71 | 1003.4 |
| 20260506214210 | 28 | 113 | 3.2 | 6.4 | 0.00 | 0.00 | 0.00 | 71 | 1003.5 |
| 20260506213700 | 28 | 135 | 3.2 | 6.4 | 0.00 | 0.00 | 0.00 | 71 | 1003.6 |
| 20260506213150 | 28 | 113 | 1.6 | 6.4 | 0.00 | 0.00 | 0.00 | 72 | 1003.6 |
| 20260506212640 | 28 | 135 | 1.6 | 6.4 | 0.00 | 0.00 | 0.00 | 72 | 1003.2 |
| 20260506212129 | 28 | 135 | 3.2 | 11.3 | 0.00 | 0.00 | 0.00 | 71 | 1003.3 |
| 20260506211621 | 28 | 135 | 0.0 | 11.3 | 0.00 | 0.00 | 0.00 | 71 | 1003.2 |
| 20260506210559 | 28 | 135 | 3.2 | 11.3 | 0.00 | 0.00 | 0.00 | 70 | 1003.5 |
| 20260506210049 | 28 | 135 | 3.2 | 9.7 | 0.00 | 0.00 | 0.00 | 70 | 1003.5 |
| 20260506205538 | 28 | 113 | 3.2 | 9.7 | 0.00 | 0.00 | 0.00 | 70 | 1003.7 |
| 20260506204519 | 29 | 135 | 3.2 | 9.7 | 0.00 | 0.00 | 0.00 | 70 | 1003.6 |
| 20260506204009 | 29 | 135 | 3.2 | 9.7 | 0.00 | 0.00 | 0.00 | 70 | 1003.8 |
| 20260506203458 | 29 | 113 | 3.2 | 6.4 | 0.00 | 0.00 | 0.00 | 69 | 1003.8 |
| 20260506202949 | 29 | 113 | 3.2 | 9.7 | 0.00 | 0.00 | 0.00 | 69 | 1003.9 |
| 20260506202438 | 29 | 113 | 3.2 | 12.9 | 0.00 | 0.00 | 0.00 | 68 | 1003.9 |
| 20260506201928 | 30 | 90 | 6.4 | 12.9 | 0.00 | 0.00 | 0.00 | 67 | 1003.9 |
| 20260506200908 | 30 | 90 | 3.2 | 11.3 | 0.00 | 0.00 | 0.00 | 66 | 1003.7 |
| 20260506200358 | 30 | 158 | 4.8 | 9.7 | 0.00 | 0.00 | 0.00 | 66 | 1003.8 |
| 20260506195848 | 30 | 90 | 4.8 | 9.7 | 0.00 | 0.00 | 0.00 | 65 | 1003.8 |
| 20260506195337 | 30 | 90 | 4.8 | 9.7 | 0.00 | 0.00 | 0.00 | 64 | 1003.7 |
| 20260506194827 | 30 | 113 | 3.2 | 9.7 | 0.00 | 0.00 | 0.00 | 66 | 1003.9 |
| 20260506194317 | 30 | 68 | 3.2 | 11.3 | 0.00 | 0.00 | 0.00 | 64 | 1003.9 |
| 20260506193807 | 30 | 113 | 6.4 | 14.5 | 0.00 | 0.00 | 0.00 | 64 | 1004.1 |
| 20260506193257 | 30 | 68 | 6.4 | 14.5 | 0.00 | 0.00 | 0.00 | 65 | 1004.0 |
| 20260506192747 | 30 | 90 | 3.2 | 11.3 | 0.00 | 0.00 | 0.00 | 64 | 1004.4 |
| 20260506191726 | 30 | 90 | 4.8 | 12.9 | 0.00 | 0.00 | 0.00 | 63 | 1004.3 |
| 20260506191217 | 31 | 135 | 6.4 | 12.9 | 0.00 | 0.00 | 0.00 | 63 | 1004.3 |
| 20260506190707 | 31 | 68 | 6.4 | 12.9 | 0.00 | 0.00 | 0.00 | 63 | 1004.3 |
| 20260506190156 | 31 | 113 | 8.0 | 14.5 | 0.00 | 0.00 | 0.00 | 61 | 1004.6 |
| 20260506185646 | 31 | 90 | 6.4 | 14.5 | 0.00 | 0.00 | 0.00 | 62 | 1004.3 |
| 20260506185136 | 31 | 90 | 4.8 | 17.7 | 0.00 | 0.00 | 0.00 | 63 | 1004.7 |
| 20260506184626 | 31 | 113 | 11.3 | 17.7 | 0.00 | 0.00 | 0.00 | 61 | 1004.6 |
| 20260506184116 | 31 | 90 | 4.8 | 17.7 | 0.00 | 0.00 | 0.00 | 62 | 1004.5 |
| 20260506183605 | 31 | 113 | 4.8 | 14.5 | 0.00 | 0.00 | 0.00 | 60 | 1004.7 |
| 20260506183056 | 32 | 90 | 6.4 | 17.7 | 0.00 | 0.00 | 0.00 | 60 | 1004.6 |
| 20260506182546 | 32 | 68 | 6.4 | 17.7 | 0.00 | 0.00 | 0.00 | 58 | 1004.8 |
| 20260506182036 | 32 | 68 | 6.4 | 17.7 | 0.00 | 0.00 | 0.00 | 60 | 1004.9 |
| 20260506181526 | 32 | 68 | 6.4 | 17.7 | 0.00 | 0.00 | 0.00 | 58 | 1004.9 |
| 20260506181015 | 31 | 45 | 6.4 | 17.7 | 0.00 | 0.00 | 0.00 | 60 | 1005.3 |
| 20260506180505 | 31 | 90 | 6.4 | 20.9 | 0.00 | 0.00 | 0.00 | 59 | 1005.0 |
| 20260506175445 | 32 | 45 | 9.7 | 17.7 | 0.00 | 0.00 | 0.00 | 57 | 1005.2 |
| 20260506174935 | 32 | 113 | 3.2 | 17.7 | 0.00 | 0.00 | 0.00 | 56 | 1005.0 |
| 20260506174424 | 32 | 68 | 6.4 | 17.7 | 0.00 | 0.00 | 0.00 | 58 | 1005.3 |
| 20260506173406 | 32 | 68 | 3.2 | 20.9 | 0.00 | 0.00 | 0.00 | 58 | 1005.6 |
| 20260506172854 | 32 | 158 | 6.4 | 20.9 | 0.00 | 0.00 | 0.00 | 57 | 1005.7 |
| 20260506172344 | 32 | 68 | 9.7 | 17.7 | 0.00 | 0.00 | 0.00 | 58 | 1005.9 |
| 20260506171834 | 31 | 90 | 6.4 | 17.7 | 0.00 | 0.00 | 0.00 | 60 | 1005.7 |
| 20260506171324 | 31 | 45 | 6.4 | 17.7 | 0.00 | 0.00 | 0.00 | 61 | 1005.9 |
| 20260506170813 | 31 | 113 | 6.4 | 17.7 | 0.00 | 0.00 | 0.00 | 61 | 1005.9 |
| 20260506165754 | 31 | 90 | 6.4 | 20.9 | 0.00 | 0.00 | 0.00 | 64 | 1006.3 |
| 20260506165243 | 31 | 90 | 3.2 | 20.9 | 0.00 | 0.00 | 0.00 | 64 | 1006.4 |
| 20260506164733 | 31 | 113 | 3.2 | 22.5 | 0.00 | 0.00 | 0.00 | 64 | 1006.5 |
| 20260506164223 | 31 | 90 | 9.7 | 22.5 | 0.00 | 0.00 | 0.00 | 62 | 1006.7 |
| 20260506163713 | 31 | 135 | 4.8 | 14.5 | 0.00 | 0.00 | 0.00 | 63 | 1006.6 |
| 20260506163203 | 31 | 113 | 4.8 | 14.5 | 0.00 | 0.00 | 0.00 | 64 | 1007.0 |
| 20260506162653 | 30 | 113 | 4.8 | 12.9 | 0.00 | 0.00 | 0.00 | 65 | 1007.0 |
| 20260506162143 | 30 | 113 | 6.4 | 14.5 | 0.00 | 0.00 | 0.00 | 65 | 1007.0 |
| 20260506161632 | 30 | 90 | 6.4 | 17.7 | 0.00 | 0.00 | 0.00 | 65 | 1006.8 |
| 20260506161123 | 30 | 113 | 6.4 | 17.7 | 0.00 | 0.00 | 0.00 | 64 | 1007.3 |
| 20260506160612 | 30 | 113 | 6.4 | 17.7 | 0.00 | 0.00 | 0.00 | 64 | 1007.3 |
| 20260506155042 | 30 | 158 | 6.4 | 17.7 | 0.00 | 0.00 | 0.00 | 66 | 1007.8 |
| 20260506154531 | 30 | 158 | 6.4 | 14.5 | 0.00 | 0.00 | 0.00 | 66 | 1007.8 |
| 20260506154021 | 30 | 113 | 3.2 | 14.5 | 0.00 | 0.00 | 0.00 | 67 | 1007.9 |
| 20260506153512 | 30 | 135 | 8.0 | 14.5 | 0.00 | 0.00 | 0.00 | 66 | 1008.1 |
| 20260506153002 | 30 | 90 | 4.8 | 14.5 | 0.00 | 0.00 | 0.00 | 66 | 1008.1 |
| 20260506152451 | 30 | 68 | 6.4 | 14.5 | 0.00 | 0.00 | 0.00 | 65 | 1008.1 |
| 20260506151941 | 30 | 90 | 4.8 | 17.7 | 0.00 | 0.00 | 0.00 | 66 | 1007.9 |
| 20260506151431 | 30 | 113 | 12.9 | 17.7 | 0.00 | 0.00 | 0.00 | 66 | 1008.3 |
| 20260506150923 | 30 | 113 | 6.4 | 14.5 | 0.00 | 0.00 | 0.00 | 66 | 1008.6 |
| 20260506150411 | 30 | 135 | 6.4 | 14.5 | 0.00 | 0.00 | 0.00 | 65 | 1008.7 |
| 20260506145901 | 29 | 68 | 6.4 | 17.7 | 0.00 | 0.00 | 0.00 | 66 | 1008.7 |
| 20260506144840 | 30 | 68 | 6.4 | 14.5 | 0.00 | 0.00 | 0.00 | 66 | 1009.0 |
| 20260506143821 | 30 | 158 | 6.4 | 12.9 | 0.00 | 0.00 | 0.00 | 66 | 1009.5 |
| 20260506142800 | 30 | 113 | 3.2 | 14.5 | 0.00 | 0.00 | 0.00 | 66 | 1009.3 |
| 20260506142251 | 29 | 90 | 6.4 | 17.7 | 0.00 | 0.00 | 0.00 | 67 | 1009.7 |
| 20260506141741 | 28 | 45 | 9.7 | 17.7 | 0.00 | 0.00 | 0.00 | 67 | 1009.4 |
| 20260506141230 | 28 | 68 | 8.0 | 14.5 | 0.00 | 0.00 | 0.00 | 68 | 1009.4 |
| 20260506140719 | 29 | 90 | 6.4 | 17.7 | 0.00 | 0.00 | 0.00 | 67 | 1009.5 |
| 20260506135659 | 28 | 68 | 8.0 | 20.9 | 0.00 | 0.00 | 0.00 | 69 | 1009.9 |
| 20260506134129 | 29 | 113 | 4.8 | 14.5 | 0.00 | 0.00 | 0.00 | 68 | 1010.0 |
| 20260506133619 | 29 | 90 | 4.8 | 17.7 | 0.00 | 0.00 | 0.00 | 69 | 1009.8 |
| 20260506133109 | 28 | 158 | 6.4 | 17.7 | 0.00 | 0.00 | 0.00 | 68 | 1010.3 |
| 20260506132558 | 28 | 90 | 6.4 | 14.5 | 0.00 | 0.00 | 0.00 | 69 | 1010.0 |
| 20260506132048 | 28 | 113 | 6.4 | 14.5 | 0.00 | 0.00 | 0.00 | 70 | 1009.8 |
| 20260506131539 | 28 | 135 | 6.4 | 12.9 | 0.00 | 0.00 | 0.00 | 70 | 1009.9 |
| 20260506131029 | 28 | 158 | 3.2 | 17.7 | 0.00 | 0.00 | 0.00 | 70 | 1009.7 |
| 20260506130518 | 27 | 68 | 3.2 | 17.7 | 0.00 | 0.00 | 0.00 | 71 | 1010.0 |
| 20260506130012 | 27 | 113 | 3.2 | 14.5 | 0.00 | 0.00 | 0.00 | 71 | 1010.0 |
| 20260506125457 | 27 | 135 | 3.2 | 14.5 | 0.00 | 0.00 | 0.00 | 73 | 1010.0 |
| 20260506124948 | 27 | 113 | 6.4 | 11.3 | 0.00 | 0.00 | 0.00 | 73 | 1010.1 |
| 20260506124437 | 27 | 113 | 4.8 | 11.3 | 0.00 | 0.00 | 0.00 | 72 | 1010.1 |
| 20260506123418 | 26 | 90 | 6.4 | 12.9 | 0.00 | 0.00 | 0.00 | 75 | 1009.9 |
| 20260506122907 | 26 | 113 | 6.4 | 12.9 | 0.00 | 0.00 | 0.00 | 76 | 1009.9 |
| 20260506122357 | 26 | 113 | 4.8 | 12.9 | 0.00 | 0.00 | 0.00 | 76 | 1009.9 |
| 20260506121847 | 26 | 135 | 3.2 | 17.7 | 0.00 | 0.00 | 0.00 | 76 | 1010.0 |
| 20260506121337 | 26 | 113 | 4.8 | 17.7 | 0.00 | 0.00 | 0.00 | 76 | 1010.0 |
| 20260506120827 | 26 | 113 | 6.4 | 17.7 | 0.00 | 0.00 | 0.00 | 76 | 1009.9 |
| 20260506120317 | 26 | 203 | 4.8 | 17.7 | 0.00 | 0.00 | 0.00 | 76 | 1009.8 |
| 20260506115806 | 26 | 45 | 6.4 | 17.7 | 0.00 | 0.00 | 0.00 | 77 | 1010.0 |
| 20260506114236 | 25 | 113 | 4.8 | 17.7 | 0.00 | 0.00 | 0.00 | 80 | 1009.7 |
| 20260506113217 | 24 | 113 | 6.4 | 12.9 | 0.00 | 0.00 | 0.00 | 80 | 1009.9 |
| 20260506112706 | 24 | 90 | 6.4 | 12.9 | 0.00 | 0.00 | 0.00 | 82 | 1009.3 |
| 20260506112155 | 23 | 90 | 6.4 | 12.9 | 0.00 | 0.00 | 0.00 | 84 | 1009.5 |
| 20260506111647 | 23 | 158 | 6.4 | 11.3 | 0.00 | 0.00 | 0.00 | 85 | 1009.9 |
| 20260506110625 | 22 | 158 | 3.2 | 6.4 | 0.00 | 0.00 | 0.00 | 87 | 1010.0 |
| 20260506110115 | 22 | 158 | 4.8 | 6.4 | 0.00 | 0.00 | 0.00 | 88 | 1009.8 |
| 20260506105055 | 22 | 90 | 1.6 | 6.4 | 0.00 | 0.00 | 0.00 | 90 | 1009.8 |
| 20260506104546 | 22 | 68 | 1.6 | 6.4 | 0.00 | 0.00 | 0.00 | 90 | 1009.7 |
| 20260506103525 | 22 | 158 | 3.2 | 6.4 | 0.00 | 0.00 | 0.00 | 91 | 1009.7 |
| 20260506102505 | 22 | 113 | 3.2 | 6.4 | 0.00 | 0.00 | 0.00 | 91 | 1009.4 |
| 20260506101954 | 22 | 135 | 0.0 | 6.4 | 0.00 | 0.00 | 0.00 | 91 | 1009.3 |
| 20260506101444 | 22 | 90 | 3.2 | 9.7 | 0.00 | 0.00 | 0.00 | 91 | 1009.4 |
| 20260506100936 | 22 | 135 | 3.2 | 9.7 | 0.00 | 0.00 | 0.00 | 91 | 1009.4 |
| 20260506095914 | 22 | 158 | 3.2 | 6.4 | 0.00 | 0.00 | 0.00 | 92 | 1009.0 |
| 20260506095405 | 22 | 158 | 3.2 | 6.4 | 0.00 | 0.00 | 0.00 | 92 | 1009.2 |
| 20260506094854 | 22 | 135 | 1.6 | 6.4 | 0.00 | 0.00 | 0.00 | 91 | 1009.1 |
| 20260506094353 | 22 | 158 | 1.6 | 3.2 | 0.00 | 0.00 | 0.00 | 91 | 1009.0 |
| 20260506093324 | 22 | 158 | 1.6 | 3.2 | 0.00 | 0.00 | 0.00 | 92 | 1008.8 |
| 20260506092813 | 22 | 135 | 0.0 | 3.2 | 0.00 | 0.00 | 0.00 | 91 | 1008.9 |
| 20260506092306 | 22 | 135 | 0.0 | 3.2 | 0.00 | 0.00 | 0.00 | 91 | 1009.0 |
| 20260506091753 | 22 | 113 | 0.0 | 3.2 | 0.00 | 0.00 | 0.00 | 91 | 1008.9 |
| 20260506091242 | 22 | 135 | 1.6 | 3.2 | 0.00 | 0.00 | 0.00 | 90 | 1008.8 |
| 20260506090733 | 22 | 135 | 0.0 | 3.2 | 0.00 | 0.00 | 0.00 | 89 | 1008.7 |
| 20260506090223 | 22 | 158 | 3.2 | 3.2 | 0.00 | 0.00 | 0.00 | 89 | 1009.0 |
| 20260506085714 | 22 | 90 | 0.0 | 3.2 | 0.00 | 0.00 | 0.00 | 88 | 1008.7 |
| 20260506085203 | 22 | 158 | 1.6 | 6.4 | 0.00 | 0.00 | 0.00 | 87 | 1008.6 |
| 20260506084653 | 23 | 90 | 1.6 | 6.4 | 0.00 | 0.00 | 0.00 | 87 | 1008.7 |
| 20260506083632 | 23 | 68 | 3.2 | 6.4 | 0.00 | 0.00 | 0.00 | 87 | 1008.4 |
| 20260506082612 | 22 | 180 | 1.6 | 6.4 | 0.00 | 0.00 | 0.00 | 88 | 1008.4 |
| 20260506082102 | 22 | 158 | 3.2 | 6.4 | 0.00 | 0.00 | 0.00 | 89 | 1008.4 |
| 20260506081552 | 22 | 113 | 3.2 | 6.4 | 0.00 | 0.00 | 0.00 | 90 | 1008.3 |
| 20260506081043 | 22 | 180 | 1.6 | 3.2 | 0.00 | 0.00 | 0.00 | 90 | 1008.4 |
| 20260506080535 | 22 | 135 | 1.6 | 6.4 | 0.00 | 0.00 | 0.00 | 90 | 1008.3 |
| 20260506073431 | 22 | 135 | 0.0 | 6.4 | 0.00 | 0.00 | 0.00 | 90 | 1008.2 |
| 20260506072921 | 22 | 113 | 1.6 | 6.4 | 0.00 | 0.00 | 0.00 | 90 | 1008.4 |
| 20260506072411 | 22 | 135 | 0.0 | 3.2 | 0.00 | 0.00 | 0.00 | 90 | 1008.3 |
| 20260506071901 | 22 | 135 | 3.2 | 3.2 | 0.00 | 0.00 | 0.00 | 90 | 1008.4 |
| 20260506071350 | 22 | 135 | 1.6 | 6.4 | 0.00 | 0.00 | 0.00 | 90 | 1008.5 |
| 20260506070840 | 22 | 135 | 1.6 | 6.4 | 0.00 | 0.00 | 0.00 | 91 | 1008.3 |
| 20260506070330 | 22 | 135 | 1.6 | 3.2 | 0.00 | 0.00 | 0.00 | 91 | 1008.4 |
| 20260506062155 | 22 | 135 | 0.0 | 3.2 | 0.00 | 0.00 | 0.00 | 91 | 1008.6 |
| 20260506061646 | 22 | 135 | 1.6 | 3.2 | 0.00 | 0.00 | 0.00 | 91 | 1008.5 |
| 20260506061135 | 22 | 135 | 0.0 | 3.2 | 0.00 | 0.00 | 0.00 | 91 | 1008.6 |
| 20260506060626 | 22 | 113 | 0.0 | 0.0 | 0.00 | 0.00 | 0.00 | 92 | 1008.4 |
| 20260506050912 | 22 | 135 | 0.0 | 3.2 | 0.00 | 0.00 | 0.00 | 92 | 1008.6 |
| 20260506050401 | 22 | 135 | 0.0 | 3.2 | 0.00 | 0.00 | 0.00 | 92 | 1008.8 |
| 20260506044321 | 22 | 135 | 0.0 | 3.2 | 0.00 | 0.00 | 0.00 | 92 | 1008.9 |
| 20260506043810 | 22 | 113 | 0.0 | 3.2 | 0.00 | 0.00 | 0.00 | 91 | 1008.9 |
| 20260506043300 | 22 | 135 | 0.0 | 3.2 | 0.00 | 0.00 | 0.00 | 91 | 1008.7 |
| 20260506042751 | 22 | 113 | 0.0 | 3.2 | 0.00 | 0.00 | 0.00 | 92 | 1008.9 |
| 20260506042241 | 22 | 135 | 0.0 | 3.2 | 0.00 | 0.00 | 0.00 | 91 | 1008.9 |
| 20260506041731 | 22 | 135 | 0.0 | 3.2 | 0.00 | 0.00 | 0.00 | 91 | 1008.9 |
| 20260506041220 | 22 | 135 | 1.6 | 3.2 | 0.00 | 0.00 | 0.00 | 91 | 1008.8 |
| 20260506040200 | 22 | 113 | 0.0 | 3.2 | 0.00 | 0.00 | 0.00 | 91 | 1008.8 |
| 20260506035141 | 22 | 113 | 1.6 | 3.2 | 0.00 | 0.00 | 0.00 | 91 | 1008.7 |
| 20260506034630 | 22 | 113 | 0.0 | 3.2 | 0.00 | 0.00 | 0.00 | 91 | 1008.7 |
| 20260506034120 | 22 | 135 | 0.0 | 3.2 | 0.00 | 0.00 | 0.00 | 91 | 1009.0 |
| 20260506033609 | 22 | 135 | 0.0 | 3.2 | 0.00 | 0.00 | 0.00 | 90 | 1009.0 |
| 20260506032549 | 23 | 135 | 0.0 | 3.2 | 0.00 | 0.00 | 0.00 | 90 | 1009.1 |
| 20260506032039 | 23 | 113 | 0.0 | 3.2 | 0.00 | 0.00 | 0.00 | 89 | 1009.0 |
| 20260506031529 | 23 | 135 | 0.0 | 3.2 | 0.00 | 0.00 | 0.00 | 90 | 1009.1 |
| 20260506031018 | 23 | 135 | 0.0 | 3.2 | 0.00 | 0.00 | 0.00 | 89 | 1009.0 |
| 20260506030508 | 23 | 135 | 0.0 | 3.2 | 0.00 | 0.00 | 0.00 | 89 | 1009.2 |
| 20260506025958 | 23 | 135 | 0.0 | 3.2 | 0.00 | 0.00 | 0.00 | 89 | 1009.2 |
| 20260506025448 | 23 | 135 | 0.0 | 3.2 | 0.00 | 0.00 | 0.00 | 88 | 1009.2 |
| 20260506024939 | 23 | 135 | 0.0 | 3.2 | 0.00 | 0.00 | 0.00 | 88 | 1009.2 |
| 20260506024428 | 23 | 90 | 0.0 | 3.2 | 0.00 | 0.00 | 0.00 | 88 | 1009.2 |
| 20260506023408 | 23 | 158 | 1.6 | 3.2 | 0.00 | 0.00 | 0.00 | 88 | 1009.1 |
| 20260506022857 | 23 | 113 | 1.6 | 3.2 | 0.00 | 0.00 | 0.00 | 88 | 1009.2 |
| 20260506022347 | 23 | 135 | 1.6 | 6.4 | 0.00 | 0.00 | 0.00 | 88 | 1009.1 |
| 20260506021328 | 24 | 135 | 0.0 | 6.4 | 0.00 | 0.00 | 0.00 | 87 | 1009.2 |
| 20260506020817 | 24 | 135 | 1.6 | 6.4 | 0.00 | 0.00 | 0.00 | 87 | 1009.2 |
| 20260506020307 | 24 | 158 | 1.6 | 6.4 | 0.00 | 0.00 | 0.00 | 87 | 1009.2 |
| 20260506015757 | 24 | 113 | 3.2 | 6.4 | 0.00 | 0.00 | 0.00 | 87 | 1009.2 |
| 20260506014737 | 24 | 135 | 1.6 | 3.2 | 0.00 | 0.00 | 0.00 | 87 | 1009.3 |
| 20260506014226 | 24 | 135 | 0.0 | 3.2 | 0.00 | 0.00 | 0.00 | 87 | 1009.4 |
| 20260506013717 | 24 | 158 | 1.6 | 3.2 | 0.00 | 0.00 | 0.00 | 87 | 1009.4 |
| 20260506013207 | 24 | 158 | 0.0 | 6.4 | 0.00 | 0.00 | 0.00 | 86 | 1009.4 |
| 20260506012145 | 25 | 180 | 0.0 | 6.4 | 0.00 | 0.00 | 0.00 | 86 | 1009.3 |
| 20260506011636 | 25 | 203 | 3.2 | 6.4 | 0.00 | 0.00 | 0.00 | 85 | 1009.3 |
| 20260506011126 | 25 | 113 | 0.0 | 6.4 | 0.00 | 0.00 | 0.00 | 85 | 1009.2 |
| 20260506010615 | 25 | 90 | 1.6 | 3.2 | 0.00 | 0.00 | 0.00 | 85 | 1009.2 |
| 20260506010106 | 25 | 135 | 3.2 | 6.4 | 0.00 | 0.00 | 0.00 | 85 | 1009.1 |
| 20260506005556 | 25 | 158 | 1.6 | 6.4 | 0.00 | 0.00 | 0.00 | 85 | 1009.2 |
| 20260506004535 | 25 | 135 | 1.6 | 6.4 | 0.00 | 0.00 | 0.00 | 84 | 1009.2 |
| 20260506004025 | 25 | 158 | 3.2 | 6.4 | 0.00 | 0.00 | 0.00 | 85 | 1009.1 |
| 20260506003516 | 25 | 158 | 1.6 | 3.2 | 0.00 | 0.00 | 0.00 | 85 | 1009.2 |
| 20260506003006 | 25 | 158 | 0.0 | 3.2 | 0.00 | 0.00 | 0.00 | 85 | 1009.2 |
| 20260506002455 | 25 | 135 | 1.6 | 3.2 | 0.00 | 0.00 | 0.00 | 84 | 1009.0 |
| 20260506001945 | 25 | 113 | 1.6 | 3.2 | 0.00 | 0.00 | 0.00 | 83 | 1009.1 |
| 20260506001435 | 25 | 158 | 0.0 | 6.4 | 0.00 | 0.00 | 0.00 | 82 | 1009.0 |
| 20260506000924 | 26 | 158 | 1.6 | 6.4 | 0.00 | 0.00 | 0.00 | 82 | 1009.0 |
| 20260506000416 | 26 | 158 | 1.6 | 3.2 | 0.00 | 0.00 | 0.00 | 82 | 1009.2 |
| 20260505235354 | 26 | 158 | 0.0 | 6.4 | 0.00 | 0.00 | 0.00 | 82 | 1009.0 |
| 20260505234844 | 26 | 158 | 3.2 | 6.4 | 0.00 | 0.00 | 0.00 | 82 | 1008.9 |
| 20260505234334 | 26 | 135 | 1.6 | 6.4 | 0.00 | 0.00 | 0.00 | 82 | 1008.8 |
| 20260505233824 | 26 | 113 | 0.0 | 3.2 | 0.00 | 0.00 | 0.00 | 82 | 1008.8 |
| 20260505233313 | 26 | 135 | 0.0 | 3.2 | 0.00 | 0.00 | 0.00 | 82 | 1008.7 |
| 20260505232254 | 25 | 135 | 1.6 | 3.2 | 0.00 | 0.00 | 0.00 | 83 | 1008.7 |
| 20260505231743 | 26 | 158 | 0.0 | 3.2 | 0.00 | 0.00 | 0.00 | 83 | 1008.6 |
| 20260505231233 | 26 | 135 | 1.6 | 3.2 | 0.00 | 0.00 | 0.00 | 82 | 1008.7 |
| 20260505230723 | 26 | 135 | 0.0 | 3.2 | 0.00 | 0.00 | 0.00 | 82 | 1008.7 |
| 20260505230214 | 26 | 158 | 0.0 | 3.2 | 0.00 | 0.00 | 0.00 | 83 | 1008.5 |
| 20260505225703 | 26 | 158 | 0.0 | 3.2 | 0.00 | 0.00 | 0.00 | 82 | 1008.7 |
| 20260505225153 | 25 | 135 | 0.0 | 3.2 | 0.00 | 0.00 | 0.00 | 82 | 1008.5 |
| 20260505224644 | 25 | 158 | 0.0 | 3.2 | 0.00 | 0.00 | 0.00 | 81 | 1008.5 |
| 20260505223622 | 25 | 135 | 0.0 | 3.2 | 0.00 | 0.00 | 0.00 | 81 | 1008.3 |
| 20260505223112 | 25 | 113 | 1.6 | 3.2 | 0.00 | 0.00 | 0.00 | 81 | 1008.2 |